TimeCDT,TemperatureF,Dew PointF,Humidity,Sea Level PressureIn,VisibilityMPH,Wind Direction,Wind SpeedMPH,Gust SpeedMPH,PrecipitationIn,Events,Conditions,WindDirDegrees,DateUTC
12:15 AM,51.8,47.1,84,30.19,10.0,SSW,4.6,-,N/A,,Overcast,200,2013-04-27 05:15:00
12:35 AM,51.8,46.9,83,30.20,10.0,SW,4.6,-,N/A,,Overcast,230,2013-04-27 05:35:00
12:55 AM,50.9,46.6,85,30.19,10.0,Calm,Calm,-,N/A,,Mostly Cloudy,0,2013-04-27 05:55:00
1:15 AM,48.9,45.3,87,30.19,10.0,WSW,3.5,-,N/A,,Scattered Clouds,250,2013-04-27 06:15:00
1:35 AM,48.9,45.9,89,30.18,10.0,Calm,Calm,-,N/A,,Mostly Cloudy,0,2013-04-27 06:35:00
1:55 AM,50.0,46.4,87,30.18,10.0,Calm,Calm,-,N/A,,Overcast,0,2013-04-27 06:55:00
2:15 AM,50.9,46.8,86,30.17,10.0,Calm,Calm,-,N/A,,Overcast,0,2013-04-27 07:15:00
2:35 AM,50.9,46.9,86,30.17,10.0,Calm,Calm,-,N/A,,Overcast,0,2013-04-27 07:35:00
2:55 AM,50.9,46.8,86,30.16,10.0,Calm,Calm,-,N/A,,Overcast,0,2013-04-27 07:55:00
3:15 AM,50.9,46.8,86,30.16,10.0,Calm,Calm,-,N/A,,Overcast,0,2013-04-27 08:15:00
3:55 AM,50.5,46.6,86,30.15,10.0,Calm,Calm,-,N/A,,Overcast,0,2013-04-27 08:55:00
4:15 AM,50.5,46.8,87,30.15,7.0,Calm,Calm,-,N/A,,Overcast,0,2013-04-27 09:15:00
4:35 AM,50.5,46.8,87,30.14,7.0,Calm,Calm,-,N/A,,Overcast,0,2013-04-27 09:35:00
4:55 AM,50.4,46.6,87,30.15,10.0,Calm,Calm,-,N/A,,Overcast,0,2013-04-27 09:55:00
5:15 AM,50.4,46.6,87,30.15,7.0,SE,3.5,-,N/A,,Overcast,140,2013-04-27 10:15:00
6:35 AM,50.0,46.4,87,30.15,7.0,Calm,Calm,-,N/A,,Overcast,0,2013-04-27 11:35:00
6:55 AM,49.6,46.4,89,30.16,7.0,South,3.5,-,N/A,,Overcast,170,2013-04-27 11:55:00
7:15 AM,49.6,46.6,89,30.16,5.0,South,4.6,-,N/A,,Overcast,190,2013-04-27 12:15:00
7:35 AM,49.3,46.4,90,30.17,4.0,South,3.5,-,N/A,,Overcast,180,2013-04-27 12:35:00
7:55 AM,49.5,46.4,89,30.17,4.0,SSW,3.5,-,N/A,,Overcast,200,2013-04-27 12:55:00
8:15 AM,49.5,46.4,89,30.17,4.0,Calm,Calm,-,N/A,,Overcast,0,2013-04-27 13:15:00
8:35 AM,49.5,46.6,90,30.17,4.0,West,4.6,-,N/A,,Overcast,270,2013-04-27 13:35:00
8:55 AM,49.5,46.4,89,30.17,4.0,SW,3.5,-,N/A,,Overcast,230,2013-04-27 13:55:00
9:15 AM,50.2,46.8,88,30.17,5.0,Calm,Calm,-,N/A,,Overcast,0,2013-04-27 14:15:00
9:35 AM,50.4,47.1,89,30.16,5.0,South,3.5,-,N/A,,Overcast,180,2013-04-27 14:35:00
9:55 AM,50.9,47.1,87,30.16,5.0,Calm,Calm,-,N/A,,Overcast,0,2013-04-27 14:55:00
10:15 AM,51.8,47.3,85,30.15,7.0,SSW,3.5,-,N/A,,Overcast,210,2013-04-27 15:15:00
10:35 AM,53.1,47.5,81,30.15,10.0,West,3.5,-,N/A,,Overcast,260,2013-04-27 15:35:00
10:55 AM,55.0,47.8,77,30.15,10.0,Calm,Calm,-,N/A,,Mostly Cloudy,0,2013-04-27 15:55:00
11:15 AM,56.5,48.0,73,30.15,10.0,Calm,Calm,-,N/A,,Mostly Cloudy,0,2013-04-27 16:15:00
11:35 AM,58.3,48.4,70,30.15,10.0,Calm,Calm,-,N/A,,Scattered Clouds,0,2013-04-27 16:35:00
11:55 AM,60.3,48.4,65,30.14,10.0,Calm,Calm,-,N/A,,Clear,0,2013-04-27 16:55:00
12:15 PM,61.2,48.2,62,30.13,10.0,Calm,Calm,-,N/A,,Clear,0,2013-04-27 17:15:00
12:35 PM,62.6,47.8,58,30.12,10.0,Calm,Calm,-,N/A,,Clear,0,2013-04-27 17:35:00
12:55 PM,64.8,47.8,54,30.11,10.0,Calm,Calm,-,N/A,,Clear,0,2013-04-27 17:55:00
1:15 PM,65.8,46.2,49,30.10,10.0,SE,3.5,-,N/A,,Clear,130,2013-04-27 18:15:00
1:35 PM,66.4,46.2,48,30.09,10.0,Calm,Calm,-,N/A,,Clear,0,2013-04-27 18:35:00
1:55 PM,68.0,45.7,45,30.08,10.0,South,3.5,-,N/A,,Clear,180,2013-04-27 18:55:00
2:15 PM,68.9,44.8,42,30.08,10.0,Calm,Calm,-,N/A,,Clear,0,2013-04-27 19:15:00
2:35 PM,69.3,41.7,37,30.07,10.0,Calm,Calm,-,N/A,,Clear,0,2013-04-27 19:35:00
2:55 PM,70.7,41.4,35,30.06,10.0,Calm,Calm,-,N/A,,Clear,0,2013-04-27 19:55:00
3:15 PM,72.3,43.3,35,30.05,10.0,Calm,Calm,-,N/A,,Clear,0,2013-04-27 20:15:00
3:35 PM,71.8,41.7,34,30.03,10.0,Calm,Calm,-,N/A,,Clear,0,2013-04-27 20:35:00
3:55 PM,72.3,38.8,30,30.03,10.0,NE,3.5,-,N/A,,Clear,40,2013-04-27 20:55:00
4:15 PM,72.7,35.2,25,30.02,10.0,Calm,Calm,-,N/A,,Clear,0,2013-04-27 21:15:00
4:35 PM,72.5,34.2,25,30.01,10.0,WSW,3.5,-,N/A,,Clear,250,2013-04-27 21:35:00
4:55 PM,73.4,35.1,25,30.00,10.0,SSE,5.8,-,N/A,,Clear,160,2013-04-27 21:55:00
5:15 PM,73.4,34.9,24,30.00,10.0,South,4.6,-,N/A,,Clear,170,2013-04-27 22:15:00
5:35 PM,73.8,35.2,25,29.99,10.0,SSW,3.5,-,N/A,,Clear,210,2013-04-27 22:35:00
5:55 PM,73.2,34.9,25,29.98,10.0,Calm,Calm,-,N/A,,Clear,0,2013-04-27 22:55:00
6:15 PM,73.0,35.8,26,29.98,10.0,Calm,Calm,-,N/A,,Clear,0,2013-04-27 23:15:00
6:35 PM,72.7,34.7,25,29.98,10.0,Calm,Calm,-,N/A,,Clear,0,2013-04-27 23:35:00
6:55 PM,72.5,36.0,26,29.97,10.0,SE,5.8,-,N/A,,Clear,130,2013-04-27 23:55:00
7:15 PM,72.0,37.4,28,29.97,10.0,South,6.9,-,N/A,,Clear,170,2013-04-28 00:15:00
7:35 PM,69.8,41.2,35,29.96,10.0,SSE,5.8,-,N/A,,Clear,160,2013-04-28 00:35:00
7:55 PM,67.6,45.7,45,29.96,10.0,SSE,10.4,-,N/A,,Clear,150,2013-04-28 00:55:00
8:15 PM,65.5,48.0,53,29.96,10.0,SSE,11.5,-,N/A,,Clear,150,2013-04-28 01:15:00
8:35 PM,63.5,48.2,57,29.96,10.0,South,9.2,-,N/A,,Clear,170,2013-04-28 01:35:00
8:55 PM,61.3,48.2,62,29.96,10.0,South,8.1,-,N/A,,Clear,180,2013-04-28 01:55:00
9:15 PM,59.9,48.2,65,29.96,10.0,South,6.9,-,N/A,,Clear,180,2013-04-28 02:15:00
9:35 PM,60.4,47.7,63,29.97,10.0,South,9.2,-,N/A,,Clear,170,2013-04-28 02:35:00
9:55 PM,59.4,47.7,65,29.97,10.0,South,8.1,-,N/A,,Clear,170,2013-04-28 02:55:00
10:15 PM,57.9,47.8,69,29.97,10.0,South,8.1,-,N/A,,Clear,180,2013-04-28 03:15:00
10:35 PM,57.2,48.2,72,29.97,10.0,South,8.1,-,N/A,,Clear,180,2013-04-28 03:35:00
10:55 PM,56.7,48.4,74,29.97,10.0,South,8.1,-,N/A,,Clear,190,2013-04-28 03:55:00
11:15 PM,56.3,48.6,75,29.97,10.0,South,9.2,-,N/A,,Clear,190,2013-04-28 04:15:00
11:35 PM,55.6,48.6,77,29.96,10.0,South,9.2,-,N/A,,Clear,190,2013-04-28 04:35:00
11:55 PM,55.4,49.1,79,29.96,10.0,South,9.2,-,N/A,,Clear,190,2013-04-28 04:55:00